Weather History for Rawlins, WY

Change the Weather History Date:

Thursday, March 7, 2013

  Actual Average Record
Temperature  
Mean Temperature 39 °F 30 °F  
Max Temperature 49 °F 41 °F 55 °F (1987)
Min Temperature 28 °F 19 °F -12 °F (1964)
Degree Days  
Heating Degree Days 26 35  
Month to date heating degree days 226 254  
Since 1 July heating degree days 5827 6211  
Cooling Degree Days 0 0  
Month to date cooling degree days 0 0  
Year to date cooling degree days 0 0  
Moisture  
Dew Point 20 °F    
Average Humidity 52    
Maximum Humidity 78    
Minimum Humidity 26    
Precipitation  
Precipitation 0.00 in 0.02 in 0.23 in (1998)
Month to date precipitation 0.01 0.12  
Year to date precipitation 0.59 0.90  
Sea Level Pressure  
Sea Level Pressure 29.89 in    
Wind  
Wind Speed 9 mph (WSW)    
Max Wind Speed 25 mph    
Max Gust Speed 35 mph    
Visibility 10 miles    
Events      
T = Trace of Precipitation, MM = Missing Value Source: NWS Daily Summary

Daily Weather History Graph

Daily Weather History Graph

Search for Another Location

Airport:

Trip Planner

Search our weather history database for the weather conditions in past years. The results will help you decide how hot, cold, wet, or windy it might be!

Date:

Astronomy

Mar. 07, 2013 Rise Set
Actual Time 6:33 AM MST 6:06 PM MST
Civil Twilight 6:05 AM MST 6:34 PM MST
Nautical Twilight 5:33 AM MST 7:06 PM MST
Astronomical Twilight 5:01 AM MST 7:39 PM MST
Moon 3:38 AM MST (3/7) 1:54 PM MST (3/7)
Length of Visible Light 12h 28m
Length of Day
11h 33m
Waning Crescent, 19% of the Moon is Illuminated
Mar 7
Waning Crescent
Mar 11
New
Mar 19
First Quarter
Mar 27
Full
Apr 2
Last Quarter

Hourly Weather History & Observations

Time (MST) Temp. Windchill Dew Point Humidity Pressure Visibility Wind Dir Wind Speed Gust Speed Precip Events Conditions
12:53 AM 41.0 °F 31.1 °F 17.1 °F 38% 29.73 in 10.0 mi SSW 23.0 mph 31.1 mph N/A   Clear
1:53 AM 41.0 °F 32.5 °F 17.1 °F 38% 29.75 in 10.0 mi SW 17.3 mph 25.3 mph N/A   Clear
2:53 AM 36.0 °F 25.6 °F 19.9 °F 52% 29.79 in 10.0 mi WSW 18.4 mph - N/A   Clear
3:53 AM 34.0 °F 25.5 °F 19.9 °F 56% 29.82 in 10.0 mi WSW 11.5 mph - N/A   Clear
4:53 AM 33.1 °F 24.9 °F 25.0 °F 72% 29.86 in 10.0 mi West 10.4 mph - N/A   Clear
5:53 AM 30.0 °F 19.1 °F 23.0 °F 75% 29.94 in 10.0 mi WSW 15.0 mph - N/A   Scattered Clouds
6:53 AM 28.9 °F 21.1 °F 23.0 °F 78% 29.96 in 10.0 mi WSW 8.1 mph - N/A   Clear
7:53 AM 32.0 °F 28.7 °F 24.1 °F 73% 29.97 in 10.0 mi Variable 3.5 mph - N/A   Clear
8:53 AM 34.0 °F 28.8 °F 21.9 °F 61% 29.98 in 10.0 mi WSW 5.8 mph - N/A   Clear
9:53 AM 37.0 °F 33.3 °F 19.9 °F 50% 29.96 in 10.0 mi WNW 4.6 mph - N/A   Clear
10:53 AM 39.0 °F 32.8 °F 21.0 °F 49% 29.93 in 10.0 mi West 9.2 mph - N/A   Clear
11:53 AM 43.0 °F 37.2 °F 21.9 °F 43% 29.91 in 10.0 mi WSW 10.4 mph - N/A   Clear
12:53 PM 46.9 °F - 19.9 °F 34% 29.86 in 10.0 mi SW 15.0 mph 20.7 mph N/A   Clear
1:53 PM 48.9 °F - 19.0 °F 31% 29.84 in 10.0 mi SW 12.7 mph 24.2 mph N/A   Clear
2:53 PM 48.0 °F - 15.1 °F 27% 29.86 in 10.0 mi WSW 20.7 mph 26.5 mph N/A   Clear
3:53 PM 46.9 °F - 17.1 °F 30% 29.87 in 10.0 mi SW 10.4 mph - N/A   Clear
4:53 PM 46.9 °F - 18.0 °F 32% 29.88 in 10.0 mi SW 10.4 mph - N/A   Clear
5:53 PM 41.0 °F 38.0 °F 19.0 °F 41% 29.93 in 10.0 mi West 4.6 mph - N/A   Clear
6:53 PM 37.9 °F - 21.0 °F 51% 29.96 in 10.0 mi Calm Calm - N/A   Overcast
7:53 PM 37.0 °F - 21.9 °F 54% 29.95 in 10.0 mi Calm Calm - N/A   Overcast
8:53 PM 37.0 °F 32.4 °F 21.0 °F 52% 29.94 in 10.0 mi East 5.8 mph - N/A   Scattered Clouds
9:53 PM 35.1 °F - 21.9 °F 59% 29.94 in 10.0 mi Calm Calm - N/A   Scattered Clouds
10:53 PM 32.0 °F - 21.9 °F 66% 29.93 in 10.0 mi Calm Calm - N/A   Mostly Cloudy
11:53 PM 34.0 °F 27.2 °F 21.9 °F 61% 29.88 in 10.0 mi NE 8.1 mph - N/A   Mostly Cloudy